Date String (YYYY-MM-DD hh:mm:ss) UTC,Instrument flags,Ambient pressure (hPa),Sample flow (lpm),Bypass flow (lpm),Sample temperature (°C),Ambient temperature (°C),ASC tube jacket temperature (°C),LED temperature (°C),Box temperature (°C),Sample RH (%),Span deviation,Mass concentration (μg/m³),Mass concentration (μg/m³),Mass concentration (μg/m³)
DateTimeUTC,F1_M11,P_M11,Q1_M11,Q2_M11,T1_M11,T2_M11,T3_M11,T4_M11,T5_M11,U1_M11,ZSPAN_M11,X0_M11,X2_M11,X1_M11
2022-01-07 13:00:00,,0815.6,5.00,0.00,22.5,23.1,00.0,31.4,24.4,11.8,0000.0,0008.86,0003.99,0003.55
2022-01-07 13:01:00,,0816.1,5.01,0.00,22.5,22.8,00.0,31.4,24.4,12.5,0000.0,0008.67,0004.02,0003.57
2022-01-07 13:02:00,,0816.0,4.99,0.00,22.5,22.6,00.0,31.4,24.3,12.6,0000.0,0008.63,0004.06,0003.59
2022-01-07 13:03:00,,0816.0,5.01,0.00,22.5,22.4,00.0,31.4,24.3,12.7,0000.0,0008.90,0004.11,0003.63
2022-01-07 13:04:00,,0816.0,4.99,0.00,22.5,22.3,00.0,31.4,24.3,12.7,0000.0,0008.22,0004.12,0003.64
2022-01-07 13:05:00,,0816.0,4.99,0.00,22.5,22.1,00.0,31.4,24.1,12.3,0000.6,0008.41,0004.20,0003.70
2022-01-07 13:06:00,,0815.8,5.01,0.00,22.4,21.9,00.0,31.4,24.0,12.2,0000.0,0008.61,0004.34,0003.82
2022-01-07 13:07:00,,0815.7,4.99,0.00,22.3,21.6,00.0,31.4,23.8,09.8,0002.5,0008.84,0004.79,0004.25
2022-01-07 13:08:00,,0815.7,5.01,0.00,22.2,21.3,00.0,31.4,23.6,10.4,0003.8,0009.29,0005.18,0004.66
2022-01-07 13:09:00,,0815.6,5.01,0.00,22.0,21.1,00.0,31.3,23.5,10.3,0004.1,0009.60,0005.45,0004.94
2022-01-07 13:10:00,,0815.7,5.00,0.00,21.9,20.9,00.0,31.3,23.3,10.3,0003.9,0009.99,0005.82,0005.31
2022-01-07 13:11:00,,0815.7,5.00,0.00,21.9,21.1,00.0,31.2,23.3,10.4,0003.7,0010.13,0006.10,0005.60
2022-01-07 13:12:00,,0815.7,5.00,0.00,22.0,21.9,00.0,31.3,23.6,10.1,0003.9,0010.60,0006.53,0006.03
2022-01-07 13:13:00,,0815.7,4.99,0.00,22.1,22.6,00.0,31.3,23.9,10.0,0003.6,0011.23,0007.02,0006.50
2022-01-07 13:14:00,,0815.7,5.01,0.00,22.3,23.1,00.0,31.3,24.1,10.3,0003.2,0011.60,0007.43,0006.92
2022-01-07 13:15:00,,0816.0,5.00,0.00,22.3,22.8,00.0,31.3,24.0,10.6,0003.3,0012.24,0007.90,0007.35
2022-01-07 13:16:00,,0816.0,5.00,0.00,22.2,22.3,00.0,31.3,23.7,10.8,0003.3,0012.63,0008.30,0007.69
2022-01-07 13:17:00,,0815.4,5.00,0.00,22.0,21.8,00.0,31.3,23.5,10.9,0003.1,0013.32,0008.62,0007.99
2022-01-07 13:18:00,,0815.6,5.00,0.00,21.9,21.4,00.0,31.2,23.3,11.0,0002.7,0013.31,0008.55,0007.95
2022-01-07 13:19:00,,0815.5,4.99,0.00,21.8,21.1,00.0,31.2,23.2,11.0,0002.7,0013.23,0008.50,0007.91
2022-01-07 13:20:00,,0815.4,5.01,0.00,21.7,20.8,00.0,31.1,23.0,11.4,0002.7,0013.14,0008.41,0007.82
2022-01-07 13:21:00,,0815.4,5.00,0.00,21.6,20.6,00.0,31.1,22.9,12.0,0002.7,0012.89,0008.17,0007.60
2022-01-07 13:22:00,,0815.4,4.99,0.00,21.5,20.7,00.0,31.0,22.9,12.4,0002.5,0012.56,0007.91,0007.35
2022-01-07 13:23:00,,0815.8,5.00,0.00,21.6,21.6,00.0,31.0,23.2,12.3,0002.5,0012.85,0007.64,0007.09
2022-01-07 13:24:00,,0816.1,5.00,0.00,21.8,22.6,00.0,31.0,23.6,11.7,0002.5,0013.04,0007.41,0006.85
2022-01-07 13:25:00,,0815.7,5.01,0.00,22.0,23.0,00.0,31.1,23.9,10.5,0002.9,0012.97,0007.42,0006.84
2022-01-07 13:26:00,,0815.8,4.99,0.00,22.0,22.7,00.0,31.1,23.9,10.8,0002.9,0012.73,0007.31,0006.79
2022-01-07 13:27:00,,0816.1,5.00,0.00,22.0,22.4,00.0,31.1,23.8,11.8,0003.0,0012.49,0007.01,0006.57
2022-01-07 13:28:00,,0816.0,5.01,0.00,22.0,22.1,00.0,31.1,23.7,11.9,0003.1,0012.20,0006.81,0006.36
2022-01-07 13:29:00,,0816.0,5.00,0.00,22.0,21.8,00.0,31.1,23.7,11.4,0003.1,0012.11,0006.77,0006.31
2022-01-07 13:30:00,,0815.9,5.00,0.00,21.9,21.6,00.0,31.0,23.5,11.1,0002.6,0012.07,0006.70,0006.22
2022-01-07 13:31:00,,0815.9,4.99,0.00,21.9,21.4,00.0,31.0,23.4,11.0,0002.3,0012.21,0006.76,0006.24
2022-01-07 13:32:00,,0816.1,5.00,0.00,21.8,21.1,00.0,31.0,23.3,11.6,0002.3,0012.37,0006.77,0006.26
2022-01-07 13:33:00,,0816.0,5.01,0.00,21.7,21.0,00.0,31.0,23.2,11.8,0002.7,0012.63,0006.81,0006.31
2022-01-07 13:34:00,,0815.5,5.00,0.00,21.7,20.9,00.0,31.0,23.2,12.1,0002.5,0011.92,0006.77,0006.27
2022-01-07 13:35:00,,0815.3,5.00,0.00,21.7,20.9,00.0,30.9,23.2,12.2,0002.2,0011.26,0006.65,0006.17
2022-01-07 13:36:00,,0815.3,5.01,0.00,21.6,20.8,00.0,30.9,23.2,12.4,0002.3,0010.90,0006.37,0005.90
2022-01-07 13:37:00,,0815.3,5.00,0.00,21.6,20.8,00.0,30.9,23.1,12.4,0002.0,0010.53,0006.09,0005.64
2022-01-07 13:38:00,,0815.2,5.00,0.00,21.6,20.7,00.0,30.8,23.1,12.5,0001.7,0010.28,0006.01,0005.55
2022-01-07 13:39:00,,0815.4,5.01,0.00,21.6,21.1,00.0,30.8,23.2,12.3,0001.5,0009.74,0005.82,0005.41
2022-01-07 13:40:00,,0815.4,5.00,0.00,21.7,22.0,00.0,30.9,23.5,12.4,0001.8,0009.33,0005.55,0005.16
2022-01-07 13:41:00,,0815.4,5.00,0.00,21.9,22.7,00.0,30.9,23.8,12.1,0002.4,0008.95,0005.28,0004.92
2022-01-07 13:42:00,,0815.3,4.99,0.00,21.9,22.4,00.0,30.9,23.7,12.0,0002.4,0008.31,0004.82,0004.53
2022-01-07 13:43:00,,0815.2,5.01,0.00,21.9,22.1,00.0,30.9,23.7,12.0,0002.4,0007.56,0004.45,0004.18
2022-01-07 13:44:00,,0815.3,4.99,0.00,21.9,21.8,00.0,30.9,23.6,11.9,0002.6,0006.42,0004.09,0003.85
2022-01-07 13:45:00,,0815.0,5.01,0.00,21.9,21.7,00.0,30.9,23.5,11.9,0000.0,0005.66,0003.77,0003.56
2022-01-07 13:46:00,,0815.1,4.99,0.00,21.8,21.5,00.0,30.9,23.4,11.7,0000.0,0004.98,0003.46,0003.28
2022-01-07 13:47:00,,0815.1,5.01,0.00,21.8,21.4,00.0,30.9,23.4,11.9,0000.0,0004.17,0003.07,0002.84
2022-01-07 13:48:00,,0815.2,4.99,0.00,21.8,21.3,00.0,30.9,23.4,12.3,0000.0,0003.54,0002.59,0002.36
2022-01-07 13:49:00,,0815.2,5.00,0.00,21.7,21.2,00.0,30.9,23.3,12.4,0000.0,0002.88,0002.09,0001.93
2022-01-07 13:50:00,,0815.4,5.00,0.00,21.7,21.1,00.0,30.9,23.3,12.6,0000.0,0002.42,0001.76,0001.62
2022-01-07 13:51:00,,0815.5,5.00,0.00,21.7,21.0,00.0,30.8,23.2,12.7,0000.0,0001.85,0001.32,0001.24
2022-01-07 13:52:00,,0815.2,4.99,0.00,21.6,20.9,00.0,30.8,23.2,12.5,0000.0,0001.38,0000.93,0000.87
2022-01-07 13:53:00,,0815.1,5.01,0.00,21.6,20.9,00.0,30.8,23.2,12.7,0000.0,0001.11,0000.74,0000.68
2022-01-07 13:54:00,,0815.2,5.00,0.00,21.7,21.4,00.0,30.8,23.3,12.5,0000.0,0000.95,0000.67,0000.61
2022-01-07 13:55:00,,0815.1,5.00,0.00,21.8,22.3,00.0,30.9,23.7,12.3,0000.0,0000.85,0000.59,0000.54
2022-01-07 13:56:00,,0815.1,5.01,0.00,22.0,23.1,00.0,30.9,24.0,12.1,0000.0,0000.78,0000.53,0000.48
2022-01-07 13:57:00,,0814.9,5.00,0.00,22.1,22.9,00.0,30.9,24.0,11.8,0000.0,0000.70,0000.46,0000.42
2022-01-07 13:58:00,,0815.0,5.00,0.00,22.1,22.6,00.0,31.0,23.9,11.3,0000.0,0000.71,0000.47,0000.42
2022-01-07 13:59:00,,0815.1,5.00,0.00,22.1,22.3,00.0,31.0,23.9,11.2,0000.0,0001.13,0000.47,0000.42
